Location: Bonneuil
(46.1010°N, 2.9693°E)
Time: 03:40:36
(UTC+00:00)

STARLINK-1143 - Pass Details

Date: 09 April 2020
Orbit: 549 x 551 km, 53.0° (Epoch: 02 June)

Event Time Altitude Azimuth Distance (km) Brightness Sun altitude
Rises 19:51:35 0° 300° (WNW) 2,788 9.2 -14.4°
Reaches altitude 10° 19:53:53 10° 304° (NW) 1,889 7.8 -14.7°
Maximum altitude 19:58:08 57° 24° (NNE) 679 4.0 -15.4°
Enters shadow 20:00:20 26° 94° (E) 1,143 4.7 -15.7°
